Weather History for KNJM - January, 2014

Change the Weather History Date:

Friday, January 24, 2014

  Actual Average (KNKT) Record (KNKT)
Temperature  
Mean Temperature 22 °F -  
Max Temperature 30 °F 51 °F 75 °F (2002)
Min Temperature 14 °F 32 °F 12 °F (2014)
Degree Days  
Heating Degree Days 43    
Moisture  
Dew Point 0 °F    
Average Humidity 39    
Maximum Humidity 67    
Minimum Humidity 21    
Precipitation  
Precipitation 0.00 in - - ()
Sea Level Pressure  
Sea Level Pressure 30.47 in    
Wind  
Wind Speed 10 mph (NNW)    
Max Wind Speed 20 mph    
Max Gust Speed 29 mph    
Visibility 10 miles    
Events      
Averages and records for this station are not official NWS values.
T = Trace of Precipitation, MM = Missing Value Source: NWS Daily Summary

Daily Weather History Graph

Daily Weather History Graph

Search for Another Location

Airport or City:

Trip Planner

Search our weather history database for the weather conditions in past years. The results will help you decide how hot, cold, wet, or windy it might be!

Date:

Astronomy

Jan. 24, 2014 Rise Set
Actual Time 7:11 AM EST 5:29 PM EST
Civil Twilight 6:44 AM EST 5:56 PM EST
Nautical Twilight 6:13 AM EST 6:26 PM EST
Astronomical Twilight 5:43 AM EST 6:56 PM EST
Moon 12:40 AM EST (1/24) 11:44 AM EST (1/24)
Length of Visible Light 11h 11m
Length of Day
10h 17m
Last Quarter, 45% of the Moon is Illuminated
Jan 24
Last Quarter
Jan 30
New
Feb 6
First Quarter
Feb 14
Full
Feb 22
Last Quarter

Hourly Weather History & Observations

Time (EST) Temp. Windchill Dew Point Humidity Pressure Visibility Wind Dir Wind Speed Gust Speed Precip Events Conditions
12:57 AM 30.0 °F 21.1 °F 15.1 °F 54% 30.38 in 10.0 mi North 10.4 mph - N/A   Clear
1:57 AM 28.9 °F 19.2 °F 7.0 °F 40% 30.38 in 10.0 mi North 11.5 mph - N/A   Clear
2:57 AM 27.0 °F 16.7 °F 3.9 °F 37% 30.43 in 10.0 mi North 11.5 mph 18.4 mph N/A   Clear
3:57 AM 26.1 °F 16.2 °F 1.9 °F 35% 30.43 in 10.0 mi North 10.4 mph - N/A   Scattered Clouds
4:57 AM 25.0 °F 14.2 °F 1.0 °F 36% 30.45 in 10.0 mi North 11.5 mph 21.9 mph N/A   Overcast
5:57 AM 24.1 °F 11.5 °F 1.9 °F 38% 30.48 in 10.0 mi North 15.0 mph 26.5 mph N/A   Overcast
6:57 AM 21.0 °F 9.9 °F -0.0 °F 40% 30.53 in 10.0 mi NNW 10.4 mph 25.3 mph N/A   Overcast
7:57 AM 19.0 °F 6.1 °F -2.0 °F 40% 30.56 in 10.0 mi NNW 12.7 mph 20.7 mph N/A   Scattered Clouds
8:57 AM 21.0 °F 5.7 °F -5.1 °F 32% 30.59 in 10.0 mi North 19.6 mph 28.8 mph N/A   Clear
9:57 AM 21.9 °F 8.2 °F -2.9 °F 34% 30.59 in 10.0 mi North 16.1 mph 25.3 mph N/A   Partly Cloudy
10:57 AM 24.1 °F 12.5 °F -2.9 °F 31% 30.59 in 10.0 mi North 12.7 mph - N/A   Partly Cloudy
11:57 AM 25.0 °F 12.6 °F -4.0 °F 28% 30.55 in 10.0 mi North 15.0 mph - N/A   Clear
12:57 PM 27.0 °F 18.0 °F -5.1 °F 25% 30.51 in 10.0 mi North 9.2 mph 18.4 mph N/A   Clear
1:57 PM 28.0 °F 19.3 °F -7.1 °F 22% 30.49 in 10.0 mi North 9.2 mph 17.3 mph N/A   Clear
2:57 PM 28.9 °F 21.9 °F -7.1 °F 21% 30.47 in 10.0 mi NNE 6.9 mph - N/A   Clear
3:57 PM 28.0 °F 20.0 °F -5.1 °F 24% 30.47 in 10.0 mi NW 8.1 mph - N/A   Clear
4:57 PM 27.0 °F 18.7 °F -5.1 °F 25% 30.47 in 10.0 mi North 8.1 mph - N/A   Clear
5:57 PM 24.1 °F 19.7 °F -5.1 °F 28% 30.46 in 10.0 mi North 3.5 mph - N/A   Clear
6:57 PM 21.0 °F - -0.0 °F 40% 30.44 in 10.0 mi Calm Calm - N/A   Clear
7:57 PM 17.1 °F - 1.9 °F 52% 30.41 in 10.0 mi Calm Calm - N/A   Clear
8:57 PM 16.0 °F 10.4 °F 3.9 °F 59% 30.42 in 10.0 mi NW 3.5 mph - N/A   Clear
9:57 PM 14.0 °F 8.2 °F 3.0 °F 62% 30.42 in 10.0 mi NW 3.5 mph - N/A   Clear
10:57 PM 14.0 °F - 3.9 °F 64% 30.40 in 10.0 mi Calm Calm - N/A   Clear
11:57 PM 14.0 °F 6.5 °F 5.0 °F 67% 30.37 in 10.0 mi NW 4.6 mph - N/A   Clear